Location: *
(34.6903°N, 135.5184°E)
Time: 10:57:32
(UTC+00:00)

ADEOS II - Pass Details

Date: 22 September 2019
Orbit: 799 x 801 km, 98.5° (Epoch: 19 October)

Event Time Altitude Azimuth Distance (km) Brightness Sun altitude
Rises 17:48:05 0° 8° (N) 3,312 5.7 -35.9°
Reaches altitude 10° 17:50:26 10° 5° (N) 2,378 4.9 -35.4°
Enters shadow 17:51:51 19° 2° (N) 1,841 4.2 -35.2°
